W3EJE-13 Weather Reports


Display with metric or nautical units.
time (UTC)temp
F
wind
direction
speed
MPH
gust
MPH
rain 1hr
in
rain 24hr
in
rain mn
in
humidity
%
barometer
mb
20260505192533 75 349 4.0 7.0 0.00 0.00 0.00 46 1011.0
20260505192030 76 268 4.0 5.0 0.00 0.00 0.00 46 1011.0
20260505191528 75 268 1.0 3.0 0.00 0.00 0.00 46 1011.2
20260505191026 76 255 4.0 6.0 0.00 0.00 0.00 48 1011.0
20260505190520 75 303 3.0 5.0 0.00 0.00 0.00 47 1011.0
20260505190017 76 304 13.0 16.0 0.00 0.00 0.00 47 1011.1
20260505185514 75 329 3.0 3.0 0.00 0.00 0.00 46 1011.3
20260505185010 76 232 2.0 3.0 0.00 0.00 0.00 46 1011.3
20260505184507 75 13 5.0 9.0 0.00 0.00 0.00 46 1011.3
20260505184004 75 300 9.0 11.0 0.00 0.00 0.00 50 1011.5
20260505183501 75 275 6.0 7.0 0.00 0.00 0.00 51 1011.4
20260505182957 75 187 5.0 8.0 0.00 0.00 0.00 48 1011.6
20260505182454 75 203 2.0 7.0 0.00 0.00 0.00 47 1011.5
20260505181950 75 272 8.0 9.0 0.00 0.00 0.00 49 1011.2
20260505181448 75 271 8.0 10.0 0.00 0.00 0.00 49 1011.5
20260505180945 75 206 3.0 5.0 0.00 0.00 0.00 48 1011.2
20260505180441 74 338 3.0 7.0 0.00 0.00 0.00 48 1011.5
20260505175938 74 342 9.0 9.0 0.00 0.00 0.00 52 1011.4
20260505175434 74 229 4.0 6.0 0.00 0.00 0.00 51 1011.5
20260505174930 74 267 5.0 7.0 0.00 0.00 0.00 52 1011.5
20260505174428 74 294 4.0 7.0 0.00 0.00 0.00 50 1011.5
20260505173924 74 199 4.0 6.0 0.00 0.00 0.00 49 1011.5
20260505173420 74 32 4.0 6.0 0.00 0.00 0.00 48 1011.6
20260505172918 73 350 6.0 7.0 0.00 0.00 0.00 49 1011.7
20260505172416 73 37 4.0 6.0 0.00 0.00 0.00 51 1011.7
20260505171915 73 304 6.0 9.0 0.00 0.00 0.00 50 1011.8
20260505171412 73 96 3.0 6.0 0.00 0.00 0.00 50 1011.9
20260505170908 73 235 6.0 7.0 0.00 0.00 0.00 50 1011.9
20260505170405 73 277 4.0 5.0 0.00 0.00 0.00 49 1012.0
20260505165901 72 236 9.0 14.0 0.00 0.00 0.00 53 1012.1
20260505165356 73 41 5.0 6.0 0.00 0.00 0.00 52 1012.3
20260505164852 73 354 3.0 6.0 0.00 0.00 0.00 50 1012.3
20260505164349 73 237 6.0 8.0 0.00 0.00 0.00 51 1012.0
20260505163847 72 18 5.0 7.0 0.00 0.00 0.00 53 1012.1
20260505163346 72 249 7.0 8.0 0.00 0.00 0.00 52 1012.4
20260505162844 72 257 5.0 9.0 0.00 0.00 0.00 54 1012.3
20260505162340 71 251 2.0 2.0 0.00 0.00 0.00 55 1012.3
20260505161837 70 284 8.0 10.0 0.00 0.00 0.00 53 1012.0
20260505161334 71 179 5.0 7.0 0.00 0.00 0.00 55 1012.4
20260505160831 70 259 3.0 3.0 0.00 0.00 0.00 56 1012.6
20260505160330 70 281 5.0 7.0 0.00 0.00 0.00 58 1012.4
20260505153308 68 304 5.0 7.0 0.00 0.00 0.00 62 1013.1
20260505152805 68 266 6.0 10.0 0.00 0.00 0.00 60 1013.1
20260505152304 68 352 9.0 10.0 0.00 0.00 0.00 61 1012.8
20260505151756 68 262 8.0 10.0 0.00 0.00 0.00 60 1012.9
20260505151254 68 284 7.0 10.0 0.00 0.00 0.00 60 1013.0
20260505150750 68 286 6.0 8.0 0.00 0.00 0.00 62 1013.0
20260505150247 68 297 7.0 9.0 0.00 0.00 0.00 63 1013.0
20260505140212 67 278 8.0 10.0 0.00 0.00 0.00 62 1012.7
20260505130136 65 274 6.0 7.0 0.00 0.00 0.00 63 1012.7
20260505124625 66 134 8.0 9.0 0.00 0.00 0.00 63 1012.8
20260505124122 66 35 5.0 8.0 0.00 0.00 0.00 63 1012.7
20260505123618 65 17 7.0 9.0 0.00 0.00 0.00 65 1012.8
20260505123115 65 290 7.0 8.0 0.00 0.00 0.00 65 1013.0
20260505122611 65 311 8.0 9.0 0.00 0.00 0.00 64 1012.8
20260505122109 65 267 10.0 13.0 0.00 0.00 0.00 64 1013.2
20260505121605 65 47 14.0 16.0 0.00 0.00 0.00 64 1012.8
20260505121102 64 311 7.0 11.0 0.00 0.00 0.00 65 1013.0
20260505120558 64 319 9.0 14.0 0.00 0.00 0.00 65 1013.1
20260505120054 64 272 5.0 7.0 0.00 0.00 0.00 64 1013.1
20260505115548 64 290 5.0 6.0 0.00 0.00 0.00 65 1012.9
20260505115046 64 290 8.0 11.0 0.00 0.00 0.00 65 1012.9
20260505114543 64 17 11.0 14.0 0.00 0.00 0.00 65 1013.0
20260505114039 64 72 4.0 6.0 0.00 0.00 0.00 66 1012.9
20260505113536 63 2 5.0 8.0 0.00 0.00 0.00 67 1013.1
20260505113032 63 307 6.0 8.0 0.00 0.00 0.00 67 1013.2
20260505112528 63 330 4.0 6.0 0.00 0.00 0.00 68 1013.0
20260505112026 63 351 5.0 7.0 0.00 0.00 0.00 66 1013.0
20260505111520 63 299 5.0 7.0 0.00 0.00 0.00 66 1013.0
20260505111017 63 267 5.0 7.0 0.00 0.00 0.00 66 1012.8
20260505110514 63 295 3.0 5.0 0.00 0.00 0.00 67 1012.8
20260505101945 55 235 0.0 0.0 0.00 0.00 0.00 81 1012.3
20260505101438 56 248 0.0 1.0 0.00 0.00 0.00 81 1012.3
20260505100934 55 333 0.0 1.0 0.00 0.00 0.00 84 1012.4
20260505100432 54 233 0.0 0.0 0.00 0.00 0.00 87 1011.9
20260505095927 53 231 0.0 0.0 0.00 0.00 0.00 89 1012.0
20260505095425 53 228 0.0 0.0 0.00 0.00 0.00 89 1012.0
20260505094920 53 223 0.0 0.0 0.00 0.00 0.00 91 1012.5
20260505094418 52 156 2.0 2.0 0.00 0.00 0.00 91 1012.1
20260505093914 53 221 0.0 0.0 0.00 0.00 0.00 91 1012.0
20260505093411 53 210 1.0 1.0 0.00 0.00 0.00 91 1012.3
20260505092908 52 176 2.0 2.0 0.00 0.00 0.00 92 1011.9
20260505092406 52 185 1.0 1.0 0.00 0.00 0.00 92 1012.1
20260505091903 53 223 0.0 0.0 0.00 0.00 0.00 91 1012.0
20260505091401 53 227 0.0 0.0 0.00 0.00 0.00 90 1011.9
20260505090858 53 180 2.0 2.0 0.00 0.00 0.00 90 1011.9
20260505090356 54 243 0.0 0.0 0.00 0.00 0.00 88 1011.9
20260505085853 55 215 1.0 1.0 0.00 0.00 0.00 87 1012.0
20260505085351 56 232 0.0 0.0 0.00 0.00 0.00 86 1011.9
20260505084849 57 206 1.0 1.0 0.00 0.00 0.00 84 1012.3
20260505084347 58 208 1.0 1.0 0.00 0.00 0.00 83 1012.3
20260505083844 59 247 0.0 0.0 0.00 0.00 0.00 82 1012.3
20260505083342 58 259 0.0 0.0 0.00 0.00 0.00 81 1012.3
20260505082838 54 257 1.0 2.0 0.00 0.00 0.00 87 1012.1
20260505082334 53 262 0.0 0.0 0.00 0.00 0.00 92 1012.5
20260505081831 52 242 0.0 0.0 0.00 0.00 0.00 91 1012.1
20260505081327 52 221 0.0 0.0 0.00 0.00 0.00 90 1011.9
20260505080825 53 249 0.0 0.0 0.00 0.00 0.00 89 1011.7
20260505080320 53 206 0.0 0.0 0.00 0.00 0.00 88 1011.7
20260505075816 53 206 0.0 0.0 0.00 0.00 0.00 89 1011.8
20260505075313 52 205 0.0 0.0 0.00 0.00 0.00 89 1011.7
20260505074810 52 208 0.0 0.0 0.00 0.00 0.00 89 1011.7
20260505074308 53 214 0.0 0.0 0.00 0.00 0.00 89 1011.4
20260505073805 52 215 0.0 0.0 0.00 0.00 0.00 91 1011.7
20260505073303 52 210 0.0 0.0 0.00 0.00 0.00 92 1011.5
20260505072800 51 194 0.0 0.0 0.00 0.00 0.00 92 1011.7
20260505072255 51 210 0.0 0.0 0.00 0.00 0.00 92 1011.7
20260505071751 51 210 0.0 0.0 0.00 0.00 0.00 92 1011.5
20260505071248 51 198 0.0 0.0 0.00 0.00 0.00 92 1011.6
20260505070746 51 203 0.0 0.0 0.00 0.00 0.00 92 1011.5
20260505070242 51 213 0.0 0.0 0.00 0.00 0.00 92 1011.5
20260505065738 51 215 0.0 0.0 0.00 0.00 0.00 92 1011.6
20260505065235 51 222 0.0 0.0 0.00 0.00 0.00 91 1011.4
20260505064732 51 204 0.0 0.0 0.00 0.00 0.00 90 1011.7
20260505064229 52 221 0.0 0.0 0.00 0.00 0.00 91 1011.8
20260505063727 51 209 0.0 0.0 0.00 0.00 0.00 91 1011.8
20260505063223 51 180 0.0 0.0 0.00 0.00 0.00 91 1011.7
20260505062719 51 232 0.0 0.0 0.00 0.00 0.00 91 1012.0
20260505062217 51 174 0.0 0.0 0.00 0.00 0.00 91 1011.7
20260505061714 51 191 0.0 0.0 0.00 0.00 0.00 91 1011.8
20260505061212 51 179 0.0 0.0 0.00 0.00 0.00 91 1011.6
20260505060709 51 208 0.0 0.0 0.00 0.00 0.00 92 1011.6
20260505060206 51 185 0.0 0.0 0.00 0.00 0.00 92 1011.6
20260505055701 50 197 0.0 0.0 0.00 0.00 0.00 92 1011.7
20260505055158 51 193 0.0 0.0 0.00 0.00 0.00 91 1011.7
20260505054655 51 191 1.0 1.0 0.00 0.00 0.00 91 1011.8
20260505054153 51 185 1.0 2.0 0.00 0.00 0.00 91 1011.6
20260505053650 51 188 1.0 1.0 0.00 0.00 0.00 91 1012.0
20260505053147 51 188 1.0 2.0 0.00 0.00 0.00 91 1012.0
20260505052644 51 224 0.0 0.0 0.00 0.00 0.00 91 1011.9
20260505052141 51 187 1.0 1.0 0.00 0.00 0.00 91 1011.9
20260505051637 51 206 1.0 1.0 0.00 0.00 0.00 91 1012.0
20260505051136 51 218 1.0 1.0 0.00 0.00 0.00 90 1012.1
20260505050634 52 219 1.0 1.0 0.00 0.00 0.00 90 1012.3
20260505050132 52 187 1.0 1.0 0.00 0.00 0.00 89 1012.0
20260505041601 54 196 1.0 1.0 0.00 0.00 0.00 85 1011.8
20260505041059 54 199 1.0 1.0 0.00 0.00 0.00 85 1011.7
20260505040556 54 197 0.0 0.0 0.00 0.00 0.00 84 1011.9
20260505040053 55 209 0.0 0.0 0.00 0.00 0.00 83 1011.7
20260505035549 55 210 0.0 0.0 0.00 0.00 0.00 82 1011.7
20260505035046 56 215 0.0 0.0 0.00 0.00 0.00 80 1011.7
20260505034542 56 224 0.0 0.0 0.00 0.00 0.00 80 1011.9
20260505034039 57 251 0.0 1.0 0.00 0.00 0.00 79 1011.6
20260505033536 57 253 0.0 0.0 0.00 0.00 0.00 78 1011.7
20260505033034 57 253 0.0 0.0 0.00 0.00 0.00 77 1011.8
20260505032532 58 254 0.0 0.0 0.00 0.00 0.00 76 1012.0
20260505032028 58 253 0.0 0.0 0.00 0.00 0.00 76 1012.0
20260505031526 58 254 0.0 1.0 0.00 0.00 0.00 76 1012.1
20260505031022 58 253 0.0 0.0 0.00 0.00 0.00 75 1012.1
20260505030519 58 253 0.0 0.0 0.00 0.00 0.00 75 1011.9
20260505030015 58 239 0.0 0.0 0.00 0.00 0.00 75 1012.1
20260505025511 59 248 0.0 0.0 0.00 0.00 0.00 74 1011.8
20260505025010 59 240 0.0 0.0 0.00 0.00 0.00 74 1011.8
20260505024506 59 261 0.0 1.0 0.00 0.00 0.00 73 1011.8
20260505024003 60 256 0.0 1.0 0.00 0.00 0.00 73 1011.7
20260505023500 60 265 1.0 1.0 0.00 0.00 0.00 72 1012.1
20260505022958 60 255 1.0 2.0 0.00 0.00 0.00 72 1012.0
20260505022455 60 281 1.0 2.0 0.00 0.00 0.00 72 1012.1
20260505021952 60 262 2.0 2.0 0.00 0.00 0.00 72 1012.0
20260505021449 60 255 2.0 3.0 0.00 0.00 0.00 73 1011.9
20260505020944 60 7 2.0 2.0 0.00 0.00 0.00 72 1012.1
20260505020440 61 268 2.0 2.0 0.00 0.00 0.00 72 1012.1
20260505015937 61 284 1.0 2.0 0.00 0.00 0.00 71 1012.0
20260505015434 61 275 3.0 3.0 0.00 0.00 0.00 70 1012.0
20260505014931 61 257 1.0 2.0 0.00 0.00 0.00 71 1012.1
20260505014428 61 248 0.0 0.0 0.00 0.00 0.00 71 1011.8
20260505013925 61 285 1.0 2.0 0.00 0.00 0.00 71 1011.8
20260505013422 61 281 2.0 2.0 0.00 0.00 0.00 70 1011.8
20260505012920 61 271 1.0 2.0 0.00 0.00 0.00 70 1011.6
20260505012418 61 253 1.0 2.0 0.00 0.00 0.00 71 1011.6
20260505011914 62 263 1.0 1.0 0.00 0.00 0.00 70 1011.4
20260505011410 62 254 1.0 1.0 0.00 0.00 0.00 68 1011.4
20260505010907 62 245 0.0 1.0 0.00 0.00 0.00 68 1011.3
20260505010403 62 190 2.0 3.0 0.00 0.00 0.00 68 1011.3
20260505005859 62 254 1.0 1.0 0.00 0.00 0.00 69 1011.4
20260505005356 62 269 1.0 1.0 0.00 0.00 0.00 68 1011.1
20260505004854 63 253 0.0 1.0 0.00 0.00 0.00 67 1011.3
20260505004349 63 302 0.0 0.0 0.00 0.00 0.00 67 1011.2
20260505003847 64 256 2.0 2.0 0.00 0.00 0.00 66 1011.3
20260505003344 64 243 1.0 2.0 0.00 0.00 0.00 66 1011.3
20260505002840 64 267 2.0 2.0 0.00 0.00 0.00 65 1011.7
20260505002337 64 293 2.0 3.0 0.00 0.00 0.00 65 1011.4
20260505001836 64 262 1.0 2.0 0.00 0.00 0.00 66 1011.5
20260505001332 64 262 4.0 5.0 0.00 0.00 0.00 65 1011.5
20260505000829 64 264 2.0 3.0 0.00 0.00 0.00 65 1011.2
20260505000327 64 283 2.0 2.0 0.00 0.00 0.00 66 1010.9
20260504235824 65 253 0.0 1.0 0.00 0.00 0.00 65 1011.2
20260504235321 65 291 2.0 2.0 0.00 0.00 0.00 64 1011.0
20260504234817 65 316 2.0 2.0 0.00 0.00 0.00 64 1011.0
20260504234315 65 355 6.0 7.0 0.00 0.00 0.00 62 1011.0
20260504233811 65 10 4.0 6.0 0.00 0.00 0.00 63 1010.9
20260504233307 66 303 0.0 0.0 0.00 0.00 0.00 62 1011.0
20260504232804 66 292 5.0 6.0 0.00 0.00 0.00 61 1011.1
20260504232303 67 330 3.0 5.0 0.00 0.00 0.00 61 1011.1
20260504231758 67 265 3.0 3.0 0.00 0.00 0.00 61 1011.2
20260504231254 68 283 2.0 2.0 0.00 0.00 0.00 60 1011.2
20260504230750 68 291 8.0 9.0 0.00 0.00 0.00 60 1010.8
20260504230249 67 322 3.0 5.0 0.00 0.00 0.00 62 1010.8
20260504225747 67 314 5.0 6.0 0.00 0.00 0.00 60 1011.0
20260504225243 66 279 5.0 7.0 0.00 0.00 0.00 60 1011.0
20260504224740 66 269 3.0 5.0 0.00 0.00 0.00 62 1010.9
20260504224238 67 263 3.0 3.0 0.00 0.00 0.00 60 1011.0
20260504223734 68 293 5.0 7.0 0.00 0.00 0.00 58 1010.8
20260504223229 68 277 3.0 3.0 0.00 0.00 0.00 59 1010.7
20260504222727 68 310 8.0 10.0 0.00 0.00 0.00 59 1010.8
20260504222223 69 301 4.0 6.0 0.00 0.00 0.00 58 1010.8
20260504221721 69 252 5.0 8.0 0.00 0.00 0.00 57 1010.9
20260504221218 69 258 4.0 5.0 0.00 0.00 0.00 57 1010.8
20260504220714 70 300 4.0 6.0 0.00 0.00 0.00 55 1010.9
20260504220212 69 288 4.0 5.0 0.00 0.00 0.00 58 1010.9
20260504215709 71 248 1.0 2.0 0.00 0.00 0.00 55 1010.8
20260504215206 70 239 5.0 6.0 0.00 0.00 0.00 55 1010.8
20260504214701 70 239 3.0 3.0 0.00 0.00 0.00 55 1011.1
20260504214158 69 280 4.0 6.0 0.00 0.00 0.00 56 1011.0
20260504213654 68 259 4.0 7.0 0.00 0.00 0.00 58 1011.1
20260504213151 70 252 4.0 7.0 0.00 0.00 0.00 55 1010.9
20260504212648 68 327 7.0 9.0 0.00 0.00 0.00 57 1010.9
20260504212144 70 265 5.0 8.0 0.00 0.00 0.00 55 1011.0
20260504211642 69 302 4.0 5.0 0.00 0.00 0.00 57 1011.0
20260504211138 68 344 5.0 8.0 0.00 0.00 0.00 57 1010.9
20260504210636 70 234 5.0 8.0 0.00 0.00 0.00 55 1010.9
20260504210132 70 306 6.0 8.0 0.00 0.00 0.00 56 1010.9
20260504205630 70 302 7.0 8.0 0.00 0.00 0.00 58 1010.9
20260504205127 70 293 10.0 10.0 0.00 0.00 0.00 58 1010.9
20260504204626 69 288 5.0 7.0 0.00 0.00 0.00 59 1010.9
20260504204124 70 331 3.0 5.0 0.00 0.00 0.00 55 1010.7
20260504203622 70 357 6.0 10.0 0.00 0.00 0.00 56 1010.6
20260504203120 68 256 3.0 5.0 0.00 0.00 0.00 60 1010.6
20260504202614 68 2 7.0 9.0 0.00 0.00 0.00 59 1010.5
20260504202111 68 289 3.0 5.0 0.00 0.00 0.00 59 1010.7
20260504201608 68 276 4.0 6.0 0.00 0.00 0.00 59 1010.9
20260504201106 68 163 4.0 6.0 0.00 0.00 0.00 57 1010.8
20260504200603 69 224 2.0 3.0 0.00 0.00 0.00 56 1011.0
20260504200059 69 202 3.0 5.0 0.00 0.00 0.00 59 1011.0
20260504195555 69 53 3.0 3.0 0.00 0.00 0.00 57 1010.9
20260504195052 70 240 5.0 7.0 0.00 0.00 0.00 57 1011.1
20260504194549 69 313 9.0 11.0 0.00 0.00 0.00 58 1011.0
20260504194044 70 310 3.0 3.0 0.00 0.00 0.00 56 1011.1
20260504193541 70 292 5.0 6.0 0.00 0.00 0.00 57 1011.1
20260504193040 70 179 3.0 6.0 0.00 0.00 0.00 55 1011.0